Location: Mission Viejo Division
(33.5624°N, 117.5924°W)
Time: 08:55:14
(UTC+00:00)

IRS-1D - Pass Details

Date: 22 May 2024
Orbit: 739 x 813 km, 98.8° (Epoch: 13 June)

Event Time Altitude Azimuth Distance (km) Brightness Sun altitude
Rises 12:08:28 0° 3° (N) 3,340 7.3 -7.6°
Reaches altitude 10° 12:10:58 10° 355° (N) 2,403 6.4 -7.1°
Maximum altitude 12:15:50 38° 289° (WNW) 1,224 4.3 -6.2°
Drops below altitude 10° 12:20:37 10° 223° (SW) 2,368 5.4 -5.4°
Enters shadow 12:22:15 - 217° (SW) 2,974 6.0 -5.1°
